Regional Weather Roundup
Issued by NWS

Home | Current Version | Previous Version | Graphics & Text | Print | Product List | Glossary On
Versions: 1 2 3 4 5 6 7 8 9 10 11 12 13 14 15 16 17 18 19 20 21 22 23 24 25 26 27 28 29 30 31 32 33 34 35 36 37 38 39 40 41 42 43 44 45 46 47 48 49 50
000
ASUS44 KMEG 261210
RWRTN
TENNESSEE HOURLY STATE WEATHER ROUNDUP
NATIONAL WEATHER SERVICE MEMPHIS TN
600 AM CST SUN FEB 26 2017

TNZ002-004-019-021-049-052-054-088>092-261300-
WEST TENNESSEE

CITY           SKY/WX    TMP DP  RH WIND       PRES   REMARKS
MEMPHIS INTL   CLEAR     35  23  61 SE3       30.16S
NWS MEMPHIS      N/A     31 N/A N/A MISG        N/A
JACKSON        CLEAR     25  23  92 SE5       30.18F WCI  19
UNION CITY     CLEAR     27  21  80 CALM      30.18R
PARIS          CLEAR     25  19  80 E5        30.20R WCI  19
HUNTINGDON     CLEAR     25  21  86 CALM      30.20R
$$

TNZ008-025-027-028-033-062-065-066-261300-
NORTH MIDDLE TENNESSEE

CITY           SKY/WX    TMP DP  RH WIND       PRES   REMARKS
NASHVILLE      CLEAR     28  22  78 S3        30.23R
PORTLAND       CLEAR     23  21  93 CALM      30.22R
CLARKSVILLE    CLEAR     22  20  92 CALM      30.22R
SMYRNA         CLEAR     22  20  92 SE3       30.24R
COOKEVILLE     CLEAR     21  21 100 CALM      30.20S
GALLATIN       CLEAR     23  19  86 CALM      30.26R
CROSSVILLE     CLEAR     21  18  88 CALM      30.16R
$$

TNZ061-075-076-078-094-096-097-261300-
SOUTH MIDDLE TENNESSEE

CITY           SKY/WX    TMP DP  RH WIND       PRES   REMARKS
FAYETTEVILLE   CLEAR     28  23  80 CALM      30.20S
TULLAHOMA      CLEAR     21  18  86 CALM      30.20R
WINCHESTER     CLEAR     21  21 100 CALM      30.21R
MCMINNVILLE    CLEAR     21  19  93 CALM      30.20R
COLUMBIA       CLEAR    N/A N/A N/A CALM      30.20R
SHELBYVILLE    CLEAR     25  25 100 SE3       30.22R
$$

TNZ017-018-042-046-047-261300-
NORTHEAST TENNESSEE

CITY           SKY/WX    TMP DP  RH WIND       PRES   REMARKS
TRI CITIES     CLEAR     26  18  71 SW5       30.16R WCI  20
ELIZABETHTON   PTCLDY    25  19  80 NW5       30.16R WCI  19
$$

TNZ012-013-036-069-073-074-261300-
CENTRAL EAST TENNESSEE

CITY           SKY/WX    TMP DP  RH WIND       PRES   REMARKS
KNOXVILLE      NOT AVBL
OAK RIDGE      CLEAR     27  22  81 CALM      30.22R
GATLINBURG     CLEAR     23  19  86 CALM      30.21R
MORRISTOWN     PTCLDY    27  21  80 CALM      30.18R
JACKSBORO      CLEAR     23  23 100 CALM      30.23R
$$

TNZ083-085-099-261300-
SOUTHEAST TENNESSEE

CITY           SKY/WX    TMP DP  RH WIND       PRES   REMARKS
CHATTANOOGA    CLEAR     32  23  69 CALM      30.23R
$$

SKY/WX REPORTED AS FAIR MEANS FEW OR NO CLOUDS BELOW
12 THOUSAND FEET.




USA.gov is the U.S. government's official web portal to all federal, state and local government web resources and services.